This demonstration page uses our WeatherBlox Daily Observations layout. Learn more.

Left ArrowRight Arrow

Hourly Observations for February 2, 2020

Temp ( °F °C ) Dew Point ( °F °C ) Humidity (%) Winds ( mph kmh ) Pressure ( in mb ) Visibility ( mi km ) Precip ( " mm )
12:59 am 00:59 Mostly Cloudy 44 6.7 41 5 89 89 W 8 13 29.76 1008 9 14 0.00 0.00
1:59 am 01:59 Cloudy 44 6.7 41 5 89 89 WNW 13 20 29.75 1008 10 16 0.00 0.00
2:59 am 02:59 Partly Cloudy 43 6.1 40 4.4 89 89 W 8 13 29.74 1007 8 13 0.00 0.00
3:32 am 03:32 Partly Cloudy 42 5.6 39 3.9 89 89 W 8 13 29.74 1007 9 14 0.00 0.00
3:59 am 03:59 Partly Cloudy 42 5.6 39 3.9 89 89 W 9 15 29.74 1007 9 14 0.00 0.00
4:59 am 04:59 Mostly Clear 42 5.6 39 3.9 89 89 W 9 15 29.75 1007 9 14 0.00 0.00
5:59 am 05:59 Clear 41 5 37 2.8 86 86 W 9 15 29.77 1008 10 16 0.00 0.00
6:59 am 06:59 Mostly Clear 40 4.4 36 2.2 86 86 WSW 7 11 29.78 1009 10 16 0.00 0.00
7:59 am 07:59 Mostly Sunny 41 5 35 1.7 79 79 WSW 7 11 29.80 1009 10 16 0.00 0.00
8:59 am 08:59 Mostly Sunny 43 6.1 35 1.7 74 74 W 8 13 29.80 1009 10 16 0.00 0.00
9:59 am 09:59 Mostly Sunny 47 8.3 36 2.2 66 66 W 13 20 29.82 1010 10 16 0.00 0.00
10:59 am 10:59 Partly Cloudy 50 10 34 1.1 54 54 W 14 22 29.80 1009 10 16 0.00 0.00
11:59 am 11:59 Mostly Cloudy 51 10.6 32 0 48 48 W 12 19 29.76 1008 10 16 0.00 0.00
12:59 pm 12:59 Mostly Cloudy 51 10.6 31 -0.6 46 46 WSW 15 24 29.72 1007 10 16 0.00 0.00
1:59 pm 13:59 Partly Cloudy 54 12.2 33 0.6 45 45 SW 14 22 29.67 1005 10 16 0.00 0.00
2:59 pm 14:59 Partly Cloudy 56 13.3 31 -0.6 39 39 SW 17 28 29.64 1004 10 16 0.00 0.00
3:59 pm 15:59 Mostly Sunny 57 13.9 33 0.6 41 41 SW 14 22 29.64 1004 10 16 0.00 0.00
4:59 pm 16:59 Sunny 56 13.3 33 0.6 42 42 SW 13 20 29.61 1003 10 16 0.00 0.00
5:59 pm 17:59 Clear 55 12.8 33 0.6 44 44 SSW 13 20 29.60 1002 10 16 0.00 0.00
6:59 pm 18:59 Clear 55 12.8 33 0.6 44 44 SSW 10 17 29.61 1003 10 16 0.00 0.00
7:59 pm 19:59 Clear 55 12.8 34 1.1 45 45 SSW 14 22 29.61 1003 10 16 0.00 0.00
8:59 pm 20:59 Clear 55 12.8 34 1.1 45 45 SW 13 20 29.62 1003 10 16 0.00 0.00
9:59 pm 21:59 Clear 57 13.9 33 0.6 41 41 SW 15 24 29.64 1004 10 16 0.00 0.00
10:59 pm 22:59 Clear 58 14.4 34 1.1 41 41 WSW 16 26 29.67 1005 10 16 0.00 0.00
11:59 pm 23:59 Clear 57 13.9 34 1.1 42 42 WSW 12 19 29.70 1006 10 16 0.00 0.00

Powered by AerisWeather